Regional Weather Roundup
Issued by NWS

Home | Current Version | Previous Version | Text Only | Print | Product List | Glossary Off
Versions: 1 2 3 4 5 6 7 8 9 10 11 12 13 14 15 16 17 18 19 20 21 22 23 24 25 26 27 28 29 30 31 32 33 34 35 36 37 38 39 40 41 42 43 44 45 46 47 48 49 50

427
ASUS43 KBIS 230310
RWRND

NORTH DAKOTA REGIONAL WEATHER ROUNDUP
NATIONAL WEATHER SERVICE BISMARCK ND
1000 PM CDT MON MAY 22 2017

NOTE: "FAIR" INDICATES FEW OR NO CLOUDS BELOW 12,000 FEET WITH NO
SIGNIFICANT WEATHER AND/OR OBSTRUCTIONS TO VISIBILITY.


NDZ001>003-009>011-017-230400-
NORTHWEST NORTH DAKOTA

CITY           SKY/WX    TMP DP  RH WIND       PRES   REMARKS
WILLISTON      CLOUDY    61  35  37 N7        30.10R
MINOT          CLOUDY    55  37  50 N15       30.07R
MINOT AFB      CLOUDY    55  38  51 NE9       30.07R
$$

NDZ018>021-031>035-040>046-230400-
SOUTHWEST NORTH DAKOTA

CITY           SKY/WX    TMP DP  RH WIND       PRES   REMARKS
BISMARCK       CLOUDY    58  37  45 N22G30    30.01R
DICKINSON      CLOUDY    55  34  45 NW8       30.06R
GARRISON         N/A     54  35  48 NE13      30.05R
HETTINGER ARPT CLOUDY    51  37  58 NW5       30.09R
$$

NDZ004>008-012>016-024-026-027-054-230400-
NORTHEAST NORTH DAKOTA

CITY           SKY/WX    TMP DP  RH WIND       PRES   REMARKS
GRAND FORKS    CLOUDY    50  47  89 N13       29.91R
GRND FRKS AFB  CLOUDY    49  46  90 N14       29.93R
DEVILS LAKE    CLOUDY    49  42  77 N17G28    30.00R
$$

NDZ022-023-025-028>030-036>039-047>053-230400-
SOUTHEAST NORTH DAKOTA

CITY           SKY/WX    TMP DP  RH WIND       PRES   REMARKS
FARGO          CLOUDY    49  46  90 NW12      29.89R
JAMESTOWN      CLOUDY    49  44  83 N14       29.96R
$$





USA.gov is the U.S. government's official web portal to all federal, state and local government web resources and services.